Change the Weather History Date:

Monday, January 20, 2014

  Actual Average Record
Temperature  
Mean Temperature 50 °F 40 °F  
Max Temperature 69 °F 54 °F 78 °F (1986)
Min Temperature 31 °F 27 °F 7 °F (1937)
Degree Days  
Heating Degree Days 15 25  
Month to date heating degree days 471 504  
Since 1 July heating degree days 1928 1902  
Cooling Degree Days 0 0  
Month to date cooling degree days 0 0  
Year to date cooling degree days 0 0  
Moisture  
Dew Point 14 °F    
Average Humidity 28    
Maximum Humidity 45    
Minimum Humidity 10    
Precipitation  
Precipitation 0.00 in 0.02 in 1.13 in (1983)
Month to date precipitation 0.00 0.38  
Year to date precipitation 0.00 0.38  
Snow  
Snow 0.00 in 0.10 in 11.40 in (1983)
Month to date snowfall 0.0 1.6  
Since 1 July snowfall 2.4 4.8  
Snow Depth 0.00 in    
Sea Level Pressure  
Sea Level Pressure 30.05 in    
Wind  
Wind Speed 14 mph (NNW)    
Max Wind Speed 26 mph    
Max Gust Speed 35 mph    
Visibility 10 miles    
Events      
T = Trace of Precipitation, MM = Missing Value Source: NWS Daily Summary

Daily Weather History Graph

Daily Weather History Graph

Search for Another Location

Airport or City:

Trip Planner

Search our weather history database for the weather conditions in past years. The results will help you decide how hot, cold, wet, or windy it might be!

Date:

Astronomy

Jan. 20, 2014 Rise Set
Actual Time 7:50 AM CST 6:06 PM CST
Civil Twilight 7:23 AM CST 6:33 PM CST
Nautical Twilight 6:53 AM CST 7:03 PM CST
Astronomical Twilight 6:23 AM CST 7:33 PM CST
Moon 10:28 PM CST (1/20) 10:05 AM CST (1/20)
Length of Visible Light 11h 10m
Length of Day
10h 16m
Waning Gibbous, 82% of the Moon is Illuminated
Jan 20
Waning Gibbous
Jan 23
Last Quarter
Jan 30
New
Feb 6
First Quarter
Feb 14
Full

Hourly Weather History & Observations

Time (CST) Temp. Windchill Dew Point Humidity Pressure Visibility Wind Dir Wind Speed Gust Speed Precip Events Conditions
12:53 AM 42.1 °F 35.7 °F 14.0 °F 32% 29.89 in 10.0 mi WSW 11.5 mph - N/A   Scattered Clouds
1:53 AM 39.9 °F 32.9 °F 14.0 °F 35% 29.87 in 10.0 mi WSW 11.5 mph - N/A   Partly Cloudy
2:53 AM 37.9 °F 30.9 °F 12.9 °F 36% 29.86 in 10.0 mi WSW 10.4 mph - N/A   Partly Cloudy
3:53 AM 39.0 °F 31.4 °F 14.0 °F 36% 29.86 in 10.0 mi West 12.7 mph - N/A   Partly Cloudy
4:53 AM 39.0 °F 31.0 °F 14.0 °F 36% 29.85 in 10.0 mi West 13.8 mph - N/A   Clear
5:53 AM 37.9 °F 30.9 °F 14.0 °F 38% 29.87 in 10.0 mi West 10.4 mph - N/A   Clear
6:53 AM 32.0 °F 24.2 °F 12.9 °F 45% 29.92 in 10.0 mi WNW 9.2 mph - N/A   Partly Cloudy
7:53 AM 32.0 °F 25.6 °F 14.0 °F 48% 29.95 in 10.0 mi NW 6.9 mph - N/A   Partly Cloudy
8:53 AM 39.0 °F 30.3 °F 15.1 °F 38% 29.96 in 10.0 mi NW 16.1 mph - N/A   Partly Cloudy
9:53 AM 48.9 °F - 15.1 °F 26% 29.97 in 10.0 mi NNW 15.0 mph 23.0 mph N/A   Partly Cloudy
10:53 AM 57.0 °F - 15.1 °F 19% 29.99 in 10.0 mi NNW 11.5 mph 17.3 mph N/A   Partly Cloudy
11:53 AM 64.0 °F - 12.0 °F 13% 29.98 in 10.0 mi NNE 18.4 mph - N/A   Partly Cloudy
12:53 PM 66.9 °F - 12.0 °F 12% 29.97 in 10.0 mi NNE 15.0 mph 26.5 mph N/A   Partly Cloudy
1:53 PM 68.0 °F - 12.0 °F 11% 29.96 in 10.0 mi NNE 20.7 mph - N/A   Partly Cloudy
2:53 PM 68.0 °F - 10.9 °F 11% 29.99 in 10.0 mi North 23.0 mph 26.5 mph N/A   Scattered Clouds
3:53 PM 64.9 °F - 10.0 °F 12% 30.04 in 10.0 mi North 18.4 mph 28.8 mph N/A   Partly Cloudy
4:53 PM 63.0 °F - 12.9 °F 14% 30.09 in 10.0 mi NNE 25.3 mph 33.4 mph N/A   Partly Cloudy
5:53 PM 57.0 °F - 14.0 °F 18% 30.16 in 10.0 mi NNE 19.6 mph - N/A   Partly Cloudy
6:53 PM 51.1 °F - 15.1 °F 24% 30.24 in 10.0 mi NNE 17.3 mph - N/A   Partly Cloudy
7:53 PM 45.0 °F 39.3 °F 15.1 °F 30% 30.30 in 10.0 mi North 11.5 mph - N/A   Clear
8:53 PM 42.1 °F 34.9 °F 16.0 °F 35% 30.32 in 10.0 mi NNE 13.8 mph - N/A   Clear
9:53 PM 41.0 °F 34.3 °F 16.0 °F 36% 30.35 in 10.0 mi North 11.5 mph - N/A   Clear
10:53 PM 37.0 °F 29.3 °F 15.1 °F 41% 30.35 in 10.0 mi North 11.5 mph - N/A   Clear
11:53 PM 36.0 °F 29.6 °F 15.1 °F 43% 30.36 in 10.0 mi North 8.1 mph - N/A   Clear